STARLINK-35590, 66108

Orbit data source: Space-Track

STARLINK-35590, 66108 is a payload satellite owned by SpaceX/Seattle (US) in LEO that was launched on Sun, 19 Oct 2025 UTC via an FALCON 9 launch vehicle from the Air Force Western Test Range (AFWTR). Payload-class satellites include a variety of spacecraft equipped with specific instruments for various scientific and technological missions. These include communications satellites like Starlink; space stations such as the ISS; scientific satellites like the Hubble; Earth observation satellites from companies like Planet Labs, Umbra, and HawkEye 360; GPS; miniature CubeSats for education and research; and military/defense satellites.

Loading next visibility...
Identifier
66108, 2025-236Y
Orbit
LEO
Country
Flag of USUS
Related business
Manufacturer
SpaceX/Seattle
Mission
Operational Commercial Communications
Bus & Motor
STARLINK V2MO, Unknown motor
Mass
575 kg wet, ~530 kg dry
Launch date (UTC)
2025-10-19 (8 months ago)
Launch vehicle
FALCON 9
Launch site
Air Force Western Test Range (AFWTR)
Object type
Payload
Rocket body
Debris
Shape & HBR
Box + 2 Pan, 17.7 m
Radar Cross Section
36.964 m², Large (>1 m²)

Expand to show TLE details & history
Last TLE update: 1 day ago

TLE from 1 day ago
0 STARLINK-35590
1 66108U 25236Y   26170.86953125  .00019004  00000-0  57201-3 0  9996
2 66108  53.1606 348.9097 0001007  47.2310 312.8777 15.34407698 38530
Epoch: 2026-06-19T20:52Z
TLE epoch observation values (Epoch: 2026-06-19T20:52:07.500Z)
Latitude
-0.00001°
Longitude
127.78613°
Altitude
463.113 km
Speed
7.636 km/s
True Right ascension
23h 15m 38s
True Declination
0° 00' 00"
Sunlit
Object was in daylight at epoch
Visualization orbit readout
Latitude
Unknown
Longitude
Unknown
Altitude
Unknown
Speed
Unknown
Apparent Right ascension
Unknown
Apparent Declination
Unknown
Sunlit
N/A
Visualization observer readout
Local Sidereal Time
07:24:19
Azimuth
Unknown
Elevation
Unknown
Doppler factor
Unknown
Orbital elements
Apogee altitude
463.626 km
Perigee altitude
462.248 km
Semi-major axis
6,841.074 km
Eccentricity
0.0001
Inclination
53.1606°
RAAN
348.9097°
Arg. of periapsis
47.231°
True anomaly
312.86924°
Mean anomaly
312.8777°
Eccentric anomaly
312.87347°
Mean motion
3.83581 °/min
Orbital period
93.85 mins
BSTAR
0.00057201
Loading maneuver chart data...
Computing Atmospheric mass density...
Loading historical data...
Loading historical data...
Loading historical data...
Loading historical data...
Loading historical data...
Loading historical data...
Loading historical data...

Documentation

Showing up to 5 results
|